Time,TemperatureF,DewpointF,PressureIn,WindDirection,WindDirectionDegrees,WindSpeedMPH,WindSpeedGustMPH,Humidity,HourlyPrecipIn,Conditions,Clouds,dailyrainin,SolarRadiationWatts/m^2,SoftwareType,DateUTC
2013-08-13 00:00:00,72.3,70.5,30.07,SSE,147,0.0,0.0,94,0.00,,,0.00,0,Wunderground v.1.15,2013-08-13 10:00:00,
2013-08-13 00:10:00,72.3,70.2,30.07,WSW,255,1.0,4.0,93,0.00,,,0.00,0,Wunderground v.1.15,2013-08-13 10:10:00,
2013-08-13 00:15:00,72.1,70.0,30.07,WSW,255,1.0,4.0,93,0.00,,,0.00,0,Wunderground v.1.15,2013-08-13 10:15:00,
2013-08-13 00:20:00,72.0,69.9,30.06,WSW,255,0.0,0.0,93,0.00,,,0.00,0,Wunderground v.1.15,2013-08-13 10:20:00,
2013-08-13 00:25:00,71.8,69.7,30.06,WSW,255,0.0,0.0,93,0.00,,,0.00,0,Wunderground v.1.15,2013-08-13 10:25:00,
2013-08-13 00:35:00,71.9,69.4,30.06,WSW,240,2.0,2.0,92,0.00,,,0.00,0,Wunderground v.1.15,2013-08-13 10:35:00,
2013-08-13 00:40:00,72.2,69.4,30.05,West,273,2.0,6.0,91,0.00,,,0.00,0,Wunderground v.1.15,2013-08-13 10:40:00,
2013-08-13 00:45:00,72.2,69.4,30.05,West,273,2.0,6.0,91,0.00,,,0.00,0,Wunderground v.1.15,2013-08-13 10:45:00,
2013-08-13 00:50:00,72.1,69.3,30.04,West,273,3.0,3.0,91,0.00,,,0.00,0,Wunderground v.1.15,2013-08-13 10:50:00,
2013-08-13 01:00:00,71.5,69.1,30.04,West,273,3.0,3.0,92,0.00,,,0.00,0,Wunderground v.1.15,2013-08-13 11:00:00,
2013-08-13 01:10:00,71.2,68.8,30.05,West,273,1.0,1.0,92,0.00,,,0.00,0,Wunderground v.1.15,2013-08-13 11:10:00,
2013-08-13 01:15:00,70.9,68.8,30.05,West,273,0.0,1.0,93,0.00,,,0.00,0,Wunderground v.1.15,2013-08-13 11:15:00,
2013-08-13 01:20:00,70.7,68.6,30.05,West,273,0.0,0.0,93,0.00,,,0.00,0,Wunderground v.1.15,2013-08-13 11:20:00,
2013-08-13 01:30:00,69.9,68.1,30.05,West,273,0.0,0.0,94,0.00,,,0.00,0,Wunderground v.1.15,2013-08-13 11:30:00,
2013-08-13 01:35:00,69.6,68.1,30.04,West,274,0.0,1.0,95,0.00,,,0.00,0,Wunderground v.1.15,2013-08-13 11:35:00,
2013-08-13 01:40:00,69.5,68.3,30.04,WNW,293,2.0,4.0,96,0.00,,,0.00,0,Wunderground v.1.15,2013-08-13 11:40:00,
2013-08-13 01:50:00,69.6,68.4,30.04,WNW,294,1.0,1.0,96,0.00,,,0.00,0,Wunderground v.1.15,2013-08-13 11:50:00,
2013-08-13 01:55:00,70.0,68.5,30.04,WNW,294,0.0,1.0,95,0.00,,,0.00,0,Wunderground v.1.15,2013-08-13 11:55:00,
2013-08-13 02:00:00,70.1,68.3,30.04,WNW,294,0.0,0.0,94,0.00,,,0.00,0,Wunderground v.1.15,2013-08-13 12:00:00,
2013-08-13 02:10:00,70.0,67.9,30.03,West,277,1.0,5.0,93,0.00,,,0.00,0,Wunderground v.1.15,2013-08-13 12:10:00,
2013-08-13 02:15:00,70.5,68.1,30.02,West,279,2.0,5.0,92,0.00,,,0.00,0,Wunderground v.1.15,2013-08-13 12:15:00,
2013-08-13 02:20:00,70.8,68.0,30.02,NNW,340,1.0,1.0,91,0.00,,,0.00,0,Wunderground v.1.15,2013-08-13 12:20:00,
2013-08-13 02:25:00,71.1,68.0,30.02,SE,128,1.0,2.0,90,0.00,,,0.00,0,Wunderground v.1.15,2013-08-13 12:25:00,
2013-08-13 02:30:00,71.5,68.1,30.02,SSW,206,1.0,1.0,89,0.00,,,0.00,0,Wunderground v.1.15,2013-08-13 12:30:00,
2013-08-13 02:40:00,70.8,67.4,30.02,NNW,334,1.0,4.0,89,0.00,,,0.00,0,Wunderground v.1.15,2013-08-13 12:40:00,
2013-08-13 02:45:00,69.6,67.2,30.02,NNW,334,2.0,4.0,92,0.00,,,0.00,0,Wunderground v.1.15,2013-08-13 12:45:00,
2013-08-13 02:50:00,68.9,66.8,30.02,NNW,335,3.0,5.0,93,0.00,,,0.00,0,Wunderground v.1.15,2013-08-13 12:50:00,
2013-08-13 02:55:00,68.5,66.7,30.02,NNW,341,3.0,5.0,94,0.00,,,0.00,0,Wunderground v.1.15,2013-08-13 12:55:00,
2013-08-13 03:00:00,68.6,66.8,30.01,NNW,339,4.0,4.0,94,0.00,,,0.00,0,Wunderground v.1.15,2013-08-13 13:00:00,
2013-08-13 03:10:00,69.0,66.9,30.02,NNW,344,2.0,3.0,93,0.00,,,0.00,0,Wunderground v.1.15,2013-08-13 13:10:00,
2013-08-13 03:15:00,68.9,66.8,30.02,NNE,13,2.0,5.0,93,0.00,,,0.00,0,Wunderground v.1.15,2013-08-13 13:15:00,
2013-08-13 03:20:00,69.2,66.8,30.02,NNW,340,5.0,6.0,92,0.00,,,0.00,0,Wunderground v.1.15,2013-08-13 13:20:00,
2013-08-13 03:25:00,69.5,67.1,30.02,NW,325,7.0,7.0,92,0.00,,,0.00,0,Wunderground v.1.15,2013-08-13 13:25:00,
2013-08-13 03:30:00,70.0,67.3,30.01,NW,323,7.0,7.0,91,0.00,,,0.00,0,Wunderground v.1.15,2013-08-13 13:30:00,
2013-08-13 03:35:00,70.4,67.3,30.01,NNW,344,6.0,7.0,90,0.00,,,0.00,0,Wunderground v.1.15,2013-08-13 13:35:00,
2013-08-13 03:45:00,70.7,67.3,30.00,North,355,2.0,4.0,89,0.00,,,0.00,0,Wunderground v.1.15,2013-08-13 13:45:00,
2013-08-13 03:50:00,71.4,66.7,30.00,North,355,1.0,1.0,85,0.00,,,0.00,0,Wunderground v.1.15,2013-08-13 13:50:00,
2013-08-13 03:55:00,71.8,67.0,30.01,North,355,1.0,1.0,85,0.00,,,0.00,0,Wunderground v.1.15,2013-08-13 13:55:00,
2013-08-13 04:00:00,71.5,66.8,30.01,North,355,1.0,1.0,85,0.00,,,0.00,0,Wunderground v.1.15,2013-08-13 14:00:00,
2013-08-13 04:10:00,70.5,66.4,30.00,North,349,1.0,1.0,87,0.00,,,0.00,0,Wunderground v.1.15,2013-08-13 14:10:00,
2013-08-13 04:15:00,70.1,66.0,30.00,NW,319,0.0,4.0,87,0.00,,,0.00,0,Wunderground v.1.15,2013-08-13 14:15:00,
2013-08-13 04:20:00,69.8,66.1,30.00,NW,319,1.0,1.0,88,0.00,,,0.00,0,Wunderground v.1.15,2013-08-13 14:20:00,
2013-08-13 04:25:00,69.5,65.8,30.01,NW,319,1.0,1.0,88,0.00,,,0.00,0,Wunderground v.1.15,2013-08-13 14:25:00,
2013-08-13 04:30:00,68.8,65.4,30.01,NW,321,0.0,0.0,89,0.00,,,0.00,0,Wunderground v.1.15,2013-08-13 14:30:00,
2013-08-13 04:35:00,68.9,65.5,30.00,North,5,0.0,0.0,89,0.00,,,0.00,0,Wunderground v.1.15,2013-08-13 14:35:00,
2013-08-13 04:40:00,68.8,65.4,30.00,NW,321,1.0,4.0,89,0.00,,,0.00,0,Wunderground v.1.15,2013-08-13 14:40:00,
2013-08-13 04:45:00,68.9,65.2,30.00,NNW,327,2.0,4.0,88,0.00,,,0.00,0,Wunderground v.1.15,2013-08-13 14:45:00,
2013-08-13 04:50:00,69.3,65.3,30.00,NW,326,3.0,3.0,87,0.00,,,0.00,0,Wunderground v.1.15,2013-08-13 14:50:00,
2013-08-13 04:55:00,69.5,65.5,30.01,NW,326,3.0,3.0,87,0.00,,,0.00,0,Wunderground v.1.15,2013-08-13 14:55:00,
2013-08-13 05:00:00,69.6,65.2,30.00,NW,326,3.0,3.0,86,0.00,,,0.00,0,Wunderground v.1.15,2013-08-13 15:00:00,
2013-08-13 05:10:00,69.9,65.2,30.00,NNW,343,3.0,3.0,85,0.00,,,0.00,0,Wunderground v.1.15,2013-08-13 15:10:00,
2013-08-13 05:20:00,69.5,64.8,30.00,NNW,342,2.0,5.0,85,0.00,,,0.00,0,Wunderground v.1.15,2013-08-13 15:20:00,
2013-08-13 05:25:00,69.8,64.7,30.00,NNW,342,3.0,5.0,84,0.00,,,0.00,0,Wunderground v.1.15,2013-08-13 15:25:00,
2013-08-13 05:30:00,69.5,64.8,30.00,NNW,341,2.0,5.0,85,0.00,,,0.00,0,Wunderground v.1.15,2013-08-13 15:30:00,
2013-08-13 05:35:00,69.5,64.8,30.00,North,360,1.0,5.0,85,0.00,,,0.00,0,Wunderground v.1.15,2013-08-13 15:35:00,
2013-08-13 05:40:00,69.4,64.7,30.00,North,360,1.0,1.0,85,0.00,,,0.00,0,Wunderground v.1.15,2013-08-13 15:40:00,
2013-08-13 05:45:00,69.3,64.9,30.00,North,360,0.0,1.0,86,0.00,,,0.00,0,Wunderground v.1.15,2013-08-13 15:45:00,
2013-08-13 05:50:00,69.2,64.8,30.01,North,360,0.0,0.0,86,0.00,,,0.00,0,Wunderground v.1.15,2013-08-13 15:50:00,
2013-08-13 05:55:00,69.2,64.8,30.01,North,360,0.0,2.0,86,0.00,,,0.00,0,Wunderground v.1.15,2013-08-13 15:55:00,
2013-08-13 06:00:00,69.5,64.8,30.01,West,265,1.0,2.0,85,0.00,,,0.00,0,Wunderground v.1.15,2013-08-13 16:00:00,
2013-08-13 06:10:00,70.6,65.2,30.02,WSW,239,2.0,2.0,83,0.00,,,0.00,5,Wunderground v.1.15,2013-08-13 16:10:00,
2013-08-13 06:15:00,70.9,65.1,30.02,WSW,239,0.0,2.0,82,0.00,,,0.00,11,Wunderground v.1.15,2013-08-13 16:15:00,
2013-08-13 06:20:00,71.2,65.4,30.02,WSW,239,0.0,0.0,82,0.00,,,0.00,16,Wunderground v.1.15,2013-08-13 16:20:00,
2013-08-13 06:25:00,71.3,65.5,30.02,WSW,239,0.0,0.0,82,0.00,,,0.00,21,Wunderground v.1.15,2013-08-13 16:25:00,
2013-08-13 06:35:00,71.3,65.9,30.03,WSW,239,1.0,1.0,83,0.00,,,0.00,30,Wunderground v.1.15,2013-08-13 16:35:00,
2013-08-13 06:40:00,71.6,67.5,30.04,ESE,111,1.0,4.0,87,0.00,,,0.00,28,Wunderground v.1.15,2013-08-13 16:40:00,
2013-08-13 06:45:00,71.6,68.5,30.04,NW,311,2.0,4.0,90,0.00,,,0.00,26,Wunderground v.1.15,2013-08-13 16:45:00,
2013-08-13 06:55:00,71.4,69.6,30.05,NNW,327,3.0,3.0,94,0.00,,,0.00,33,Wunderground v.1.15,2013-08-13 16:55:00,
2013-08-13 07:00:00,71.4,69.6,30.05,NNW,329,2.0,3.0,94,0.00,,,0.00,49,Wunderground v.1.15,2013-08-13 17:00:00,
2013-08-13 07:15:00,71.2,69.4,30.05,NNW,339,1.0,4.0,94,0.00,,,0.00,77,Wunderground v.1.15,2013-08-13 17:15:00,
2013-08-13 07:25:00,71.5,69.1,30.05,NE,36,1.0,4.0,92,0.00,,,0.00,120,Wunderground v.1.15,2013-08-13 17:25:00,
2013-08-13 07:30:00,71.8,69.0,30.05,NNE,22,2.0,2.0,91,0.00,,,0.00,116,Wunderground v.1.15,2013-08-13 17:30:00,
2013-08-13 07:35:00,72.0,68.9,30.05,NNW,337,3.0,3.0,90,0.00,,,0.00,86,Wunderground v.1.15,2013-08-13 17:35:00,
2013-08-13 07:40:00,72.2,68.8,30.05,North,355,2.0,2.0,89,0.00,,,0.00,93,Wunderground v.1.15,2013-08-13 17:40:00,
2013-08-13 07:45:00,72.2,68.4,30.04,North,5,1.0,2.0,88,0.00,,,0.00,142,Wunderground v.1.15,2013-08-13 17:45:00,
2013-08-13 07:50:00,72.5,68.7,30.04,North,5,1.0,1.0,88,0.00,,,0.00,237,Wunderground v.1.15,2013-08-13 17:50:00,
2013-08-13 07:55:00,72.8,68.7,30.04,North,9,0.0,1.0,87,0.00,,,0.00,220,Wunderground v.1.15,2013-08-13 17:55:00,
2013-08-13 08:00:00,73.1,68.7,30.04,North,9,0.0,0.0,86,0.00,,,0.00,279,Wunderground v.1.15,2013-08-13 18:00:00,
2013-08-13 08:10:00,74.0,68.9,30.04,North,9,1.0,4.0,84,0.00,,,0.00,294,Wunderground v.1.15,2013-08-13 18:10:00,
2013-08-13 08:15:00,74.3,68.8,30.04,North,5,2.0,4.0,83,0.00,,,0.00,251,Wunderground v.1.15,2013-08-13 18:15:00,
2013-08-13 08:20:00,74.8,69.3,30.04,NNW,346,2.0,2.0,83,0.00,,,0.00,255,Wunderground v.1.15,2013-08-13 18:20:00,
2013-08-13 08:30:00,75.9,69.6,30.04,NNE,13,2.0,7.0,81,0.00,,,0.00,271,Wunderground v.1.15,2013-08-13 18:30:00,
2013-08-13 08:35:00,76.4,69.4,30.04,North,5,4.0,7.0,79,0.00,,,0.00,297,Wunderground v.1.15,2013-08-13 18:35:00,
2013-08-13 08:40:00,76.8,69.4,30.04,NE,41,4.0,4.0,78,0.00,,,0.00,294,Wunderground v.1.15,2013-08-13 18:40:00,
2013-08-13 08:45:00,77.2,69.8,30.04,NE,37,2.0,4.0,78,0.00,,,0.00,353,Wunderground v.1.15,2013-08-13 18:45:00,
2013-08-13 08:50:00,77.6,69.8,30.04,NE,37,1.0,1.0,77,0.00,,,0.00,320,Wunderground v.1.15,2013-08-13 18:50:00,
2013-08-13 08:55:00,77.9,70.1,30.04,NE,37,0.0,1.0,77,0.00,,,0.00,343,Wunderground v.1.15,2013-08-13 18:55:00,
2013-08-13 09:00:00,78.7,70.5,30.04,ENE,67,2.0,10.0,76,0.00,,,0.00,856,Wunderground v.1.15,2013-08-13 19:00:00,
2013-08-13 09:10:00,80.2,71.2,30.04,East,92,7.0,7.0,74,0.00,,,0.00,682,Wunderground v.1.15,2013-08-13 19:10:00,
2013-08-13 09:15:00,80.6,71.9,30.04,North,11,5.0,7.0,75,0.00,,,0.00,717,Wunderground v.1.15,2013-08-13 19:15:00,
2013-08-13 09:20:00,80.8,71.3,30.03,East,89,4.0,4.0,73,0.00,,,0.00,798,Wunderground v.1.15,2013-08-13 19:20:00,
2013-08-13 09:25:00,81.2,72.1,30.03,North,11,5.0,5.0,74,0.00,,,0.00,847,Wunderground v.1.15,2013-08-13 19:25:00,
2013-08-13 09:30:00,81.6,71.7,30.03,East,86,4.0,13.0,72,0.00,,,0.00,534,Wunderground v.1.15,2013-08-13 19:30:00,
2013-08-13 09:35:00,81.4,71.9,30.03,ESE,121,5.0,13.0,73,0.00,,,0.00,765,Wunderground v.1.15,2013-08-13 19:35:00,
2013-08-13 09:45:00,81.1,72.4,30.03,SE,127,7.0,13.0,75,0.00,,,0.00,772,Wunderground v.1.15,2013-08-13 19:45:00,
2013-08-13 09:50:00,81.6,72.1,30.03,East,100,8.0,8.0,73,0.00,,,0.00,791,Wunderground v.1.15,2013-08-13 19:50:00,
2013-08-13 09:55:00,81.7,72.6,30.03,ENE,70,8.0,11.0,74,0.00,,,0.00,789,Wunderground v.1.15,2013-08-13 19:55:00,
2013-08-13 10:00:00,81.3,73.0,30.03,SE,140,9.0,9.0,76,0.00,,,0.00,805,Wunderground v.1.15,2013-08-13 20:00:00,
2013-08-13 10:10:00,80.2,73.5,30.03,SE,133,10.0,10.0,80,0.00,,,0.00,893,Wunderground v.1.15,2013-08-13 20:10:00,
2013-08-13 10:15:00,79.6,73.6,30.03,East,79,11.0,11.0,82,0.00,,,0.00,624,Wunderground v.1.15,2013-08-13 20:15:00,
2013-08-13 10:20:00,78.6,73.4,30.04,ENE,74,10.0,14.0,84,0.00,,,0.00,548,Wunderground v.1.15,2013-08-13 20:20:00,
2013-08-13 10:25:00,78.5,73.6,30.04,ENE,72,9.0,14.0,85,0.00,,,0.00,867,Wunderground v.1.15,2013-08-13 20:25:00,
2013-08-13 10:30:00,78.8,73.9,30.04,ESE,119,8.0,8.0,85,0.00,,,0.00,879,Wunderground v.1.15,2013-08-13 20:30:00,
2013-08-13 10:40:00,78.9,73.7,30.03,SSE,148,9.0,9.0,84,0.00,,,0.00,970,Wunderground v.1.15,2013-08-13 20:40:00,
2013-08-13 10:45:00,79.4,73.8,30.03,ENE,61,8.0,9.0,83,0.00,,,0.00,970,Wunderground v.1.15,2013-08-13 20:45:00,
2013-08-13 10:50:00,79.6,73.6,30.03,SE,132,9.0,9.0,82,0.00,,,0.00,960,Wunderground v.1.15,2013-08-13 20:50:00,
2013-08-13 10:55:00,79.6,74.0,30.03,SE,138,10.0,10.0,83,0.00,,,0.00,944,Wunderground v.1.15,2013-08-13 20:55:00,
2013-08-13 11:00:00,79.5,73.5,30.03,ENE,76,10.0,10.0,82,0.00,,,0.00,965,Wunderground v.1.15,2013-08-13 21:00:00,
2013-08-13 11:10:00,79.5,73.5,30.04,SSE,153,10.0,10.0,82,0.00,,,0.00,1141,Wunderground v.1.15,2013-08-13 21:10:00,
2013-08-13 11:15:00,79.3,73.0,30.04,SE,137,10.0,13.0,81,0.00,,,0.00,422,Wunderground v.1.15,2013-08-13 21:15:00,
2013-08-13 11:20:00,79.0,73.0,30.03,SSE,168,9.0,9.0,82,0.00,,,0.00,1211,Wunderground v.1.15,2013-08-13 21:20:00,
2013-08-13 11:25:00,80.2,73.1,30.02,East,82,9.0,14.0,79,0.00,,,0.00,937,Wunderground v.1.15,2013-08-13 21:25:00,
2013-08-13 11:30:00,80.7,72.4,30.02,ESE,103,11.0,15.0,76,0.00,,,0.00,1243,Wunderground v.1.15,2013-08-13 21:30:00,
2013-08-13 11:35:00,80.6,72.7,30.02,East,96,14.0,15.0,77,0.00,,,0.00,844,Wunderground v.1.15,2013-08-13 21:35:00,
2013-08-13 11:40:00,80.2,72.7,30.01,SE,141,14.0,14.0,78,0.00,,,0.00,907,Wunderground v.1.15,2013-08-13 21:40:00,
2013-08-13 11:45:00,80.3,72.8,30.01,SE,139,13.0,14.0,78,0.00,,,0.00,1260,Wunderground v.1.15,2013-08-13 21:45:00,
2013-08-13 11:55:00,80.4,72.5,30.02,East,89,12.0,13.0,77,0.00,,,0.00,410,Wunderground v.1.15,2013-08-13 21:55:00,
2013-08-13 12:00:00,80.2,72.3,30.02,ENE,73,10.0,10.0,77,0.00,,,0.00,501,Wunderground v.1.15,2013-08-13 22:00:00,
2013-08-13 12:10:00,79.4,73.4,30.01,East,83,11.0,11.0,82,0.00,,,0.00,482,Wunderground v.1.15,2013-08-13 22:10:00,
2013-08-13 12:15:00,79.1,73.1,30.01,ENE,68,11.0,12.0,82,0.00,,,0.00,410,Wunderground v.1.15,2013-08-13 22:15:00,
2013-08-13 12:25:00,79.3,73.7,30.01,East,79,11.0,11.0,83,0.00,,,0.00,545,Wunderground v.1.15,2013-08-13 22:25:00,
2013-08-13 12:30:00,79.4,73.1,30.01,ENE,63,10.0,13.0,81,0.00,,,0.00,499,Wunderground v.1.15,2013-08-13 22:30:00,
2013-08-13 12:40:00,79.4,73.1,30.00,ENE,63,11.0,11.0,81,0.00,,,0.00,431,Wunderground v.1.15,2013-08-13 22:40:00,
2013-08-13 12:45:00,79.3,72.6,30.00,ENE,68,11.0,13.0,80,0.00,,,0.00,352,Wunderground v.1.15,2013-08-13 22:45:00,
2013-08-13 12:50:00,78.9,72.2,30.00,East,98,12.0,12.0,80,0.00,,,0.00,318,Wunderground v.1.15,2013-08-13 22:50:00,
2013-08-13 12:55:00,78.7,72.4,30.00,NNE,32,12.0,12.0,81,0.00,,,0.00,359,Wunderground v.1.15,2013-08-13 22:55:00,
2013-08-13 13:00:00,78.9,72.6,30.00,East,100,10.0,10.0,81,0.00,,,0.00,388,Wunderground v.1.15,2013-08-13 23:00:00,
2013-08-13 13:10:00,79.6,72.9,30.00,ENE,62,10.0,10.0,80,0.00,,,0.00,427,Wunderground v.1.15,2013-08-13 23:10:00,
2013-08-13 13:20:00,79.9,72.4,30.00,ESE,107,11.0,11.0,78,0.00,,,0.00,563,Wunderground v.1.15,2013-08-13 23:20:00,
2013-08-13 13:25:00,80.5,73.0,30.00,SE,126,11.0,13.0,78,0.00,,,0.00,1341,Wunderground v.1.15,2013-08-13 23:25:00,
2013-08-13 13:30:00,80.4,72.5,29.99,ESE,108,10.0,10.0,77,0.00,,,0.00,577,Wunderground v.1.15,2013-08-13 23:30:00,
2013-08-13 13:35:00,80.5,72.6,29.99,East,94,9.0,10.0,77,0.00,,,0.00,534,Wunderground v.1.15,2013-08-13 23:35:00,
2013-08-13 13:45:00,81.0,73.5,29.99,SE,125,7.0,12.0,78,0.00,,,0.00,381,Wunderground v.1.15,2013-08-13 23:45:00,
2013-08-13 13:50:00,80.7,73.2,29.98,SE,131,7.0,10.0,78,0.00,,,0.00,320,Wunderground v.1.15,2013-08-13 23:50:00,
2013-08-13 13:55:00,80.4,72.9,29.98,ENE,64,10.0,18.0,78,0.00,,,0.00,397,Wunderground v.1.15,2013-08-13 23:55:00,
2013-08-13 14:00:00,80.3,72.0,29.98,SE,128,10.0,10.0,76,0.00,,,0.00,450,Wunderground v.1.15,2013-08-14 00:00:00,
2013-08-13 14:10:00,80.6,72.3,29.98,ESE,118,10.0,17.0,76,0.00,,,0.00,508,Wunderground v.1.15,2013-08-14 00:10:00,
2013-08-13 14:15:00,80.6,71.9,29.98,ENE,76,9.0,17.0,75,0.00,,,0.00,541,Wunderground v.1.15,2013-08-14 00:15:00,
2013-08-13 14:20:00,81.1,72.4,29.98,ESE,121,8.0,9.0,75,0.00,,,0.00,615,Wunderground v.1.15,2013-08-14 00:20:00,
2013-08-13 14:25:00,81.0,73.1,29.98,SE,138,8.0,19.0,77,0.00,,,0.00,624,Wunderground v.1.15,2013-08-14 00:25:00,
2013-08-13 14:30:00,80.9,73.4,29.97,SE,140,10.0,12.0,78,0.00,,,0.00,582,Wunderground v.1.15,2013-08-14 00:30:00,
2013-08-13 14:35:00,80.9,72.6,29.97,ESE,106,10.0,12.0,76,0.00,,,0.00,682,Wunderground v.1.15,2013-08-14 00:35:00,
2013-08-13 14:40:00,81.2,72.9,29.97,ESE,107,9.0,9.0,76,0.00,,,0.00,548,Wunderground v.1.15,2013-08-14 00:40:00,
2013-08-13 14:45:00,81.1,73.2,29.97,SE,146,9.0,9.0,77,0.00,,,0.00,517,Wunderground v.1.15,2013-08-14 00:45:00,
2013-08-13 14:50:00,80.5,73.4,29.97,SE,133,9.0,12.0,79,0.00,,,0.00,642,Wunderground v.1.15,2013-08-14 00:50:00,
2013-08-13 15:00:00,79.9,73.2,29.97,ENE,62,11.0,11.0,80,0.00,,,0.00,211,Wunderground v.1.15,2013-08-14 01:00:00,
2013-08-13 15:10:00,78.8,72.8,29.97,East,86,10.0,10.0,82,0.00,,,0.00,142,Wunderground v.1.15,2013-08-14 01:10:00,
2013-08-13 15:15:00,78.4,72.4,29.97,ESE,117,9.0,10.0,82,0.00,,,0.00,178,Wunderground v.1.15,2013-08-14 01:15:00,
2013-08-13 15:25:00,78.3,72.0,29.97,SSE,163,11.0,11.0,81,0.00,,,0.00,229,Wunderground v.1.15,2013-08-14 01:25:00,
2013-08-13 15:30:00,78.6,72.6,29.97,East,91,10.0,12.0,82,0.00,,,0.00,171,Wunderground v.1.15,2013-08-14 01:30:00,
2013-08-13 15:35:00,78.9,73.3,29.96,SE,134,10.0,12.0,83,0.00,,,0.00,207,Wunderground v.1.15,2013-08-14 01:35:00,
2013-08-13 15:40:00,79.1,73.1,29.96,SE,133,9.0,14.0,82,0.00,,,0.00,206,Wunderground v.1.15,2013-08-14 01:40:00,
2013-08-13 15:45:00,78.8,72.8,29.96,ENE,77,9.0,14.0,82,0.00,,,0.00,153,Wunderground v.1.15,2013-08-14 01:45:00,
2013-08-13 15:50:00,78.3,72.7,29.96,SE,126,10.0,10.0,83,0.00,,,0.00,144,Wunderground v.1.15,2013-08-14 01:50:00,
2013-08-13 15:55:00,77.9,72.3,29.96,ESE,107,10.0,11.0,83,0.00,,,0.00,374,Wunderground v.1.15,2013-08-14 01:55:00,
2013-08-13 16:00:00,78.2,72.6,29.96,East,94,11.0,13.0,83,0.00,,,0.00,577,Wunderground v.1.15,2013-08-14 02:00:00,
2013-08-13 16:10:00,78.5,72.9,29.96,East,88,10.0,10.0,83,0.00,,,0.00,160,Wunderground v.1.15,2013-08-14 02:10:00,
2013-08-13 16:15:00,78.1,72.5,29.96,ESE,115,10.0,10.0,83,0.00,,,0.00,123,Wunderground v.1.15,2013-08-14 02:15:00,
2013-08-13 16:20:00,77.7,72.5,29.96,ESE,118,9.0,9.0,84,0.00,,,0.00,107,Wunderground v.1.15,2013-08-14 02:20:00,
2013-08-13 16:25:00,77.5,72.6,29.96,ESE,122,9.0,9.0,85,0.00,,,0.00,111,Wunderground v.1.15,2013-08-14 02:25:00,
2013-08-13 16:30:00,77.3,72.4,29.96,East,86,9.0,9.0,85,0.00,,,0.00,69,Wunderground v.1.15,2013-08-14 02:30:00,
2013-08-13 16:40:00,76.8,72.6,29.96,ESE,107,10.0,10.0,87,0.00,,,0.00,63,Wunderground v.1.15,2013-08-14 02:40:00,
2013-08-13 16:45:00,76.7,72.5,29.96,SE,126,10.0,13.0,87,0.00,,,0.00,148,Wunderground v.1.15,2013-08-14 02:45:00,
2013-08-13 16:50:00,76.8,72.6,29.96,ESE,120,9.0,12.0,87,0.00,,,0.00,125,Wunderground v.1.15,2013-08-14 02:50:00,
2013-08-13 16:55:00,76.9,72.7,29.97,East,90,9.0,12.0,87,0.00,,,0.00,102,Wunderground v.1.15,2013-08-14 02:55:00,
2013-08-13 17:00:00,76.8,72.6,29.97,SSE,150,9.0,9.0,87,0.00,,,0.00,69,Wunderground v.1.15,2013-08-14 03:00:00,
2013-08-13 17:10:00,76.8,73.0,29.97,SE,133,9.0,9.0,88,0.00,,,0.00,58,Wunderground v.1.15,2013-08-14 03:10:00,
2013-08-13 17:15:00,76.6,72.8,29.97,SE,125,9.0,16.0,88,0.00,,,0.00,79,Wunderground v.1.15,2013-08-14 03:15:00,
2013-08-13 17:20:00,76.5,73.0,29.97,East,93,10.0,12.0,89,0.00,,,0.00,40,Wunderground v.1.15,2013-08-14 03:20:00,
2013-08-13 17:25:00,76.3,73.1,29.98,East,94,10.0,12.0,90,0.00,,,0.00,56,Wunderground v.1.15,2013-08-14 03:25:00,
2013-08-13 17:30:00,75.9,73.1,29.98,ESE,117,10.0,10.0,91,0.00,,,0.00,42,Wunderground v.1.15,2013-08-14 03:30:00,
2013-08-13 17:40:00,75.6,73.1,29.98,SE,130,7.0,9.0,92,0.00,,,0.00,114,Wunderground v.1.15,2013-08-14 03:40:00,
2013-08-13 17:45:00,75.5,72.7,29.98,ESE,105,7.0,9.0,91,0.00,,,0.00,76,Wunderground v.1.15,2013-08-14 03:45:00,
2013-08-13 17:55:00,75.4,72.6,29.98,ESE,123,6.0,9.0,91,0.00,,,0.00,49,Wunderground v.1.15,2013-08-14 03:55:00,
2013-08-13 18:00:00,75.3,72.8,29.98,ENE,72,6.0,6.0,92,0.00,,,0.00,37,Wunderground v.1.15,2013-08-14 04:00:00,
2013-08-13 18:05:00,75.2,72.4,29.99,NNE,18,5.0,6.0,91,0.00,,,0.00,40,Wunderground v.1.15,2013-08-14 04:05:00,
2013-08-13 18:10:00,75.2,72.7,29.99,SE,124,6.0,11.0,92,0.00,,,0.00,23,Wunderground v.1.15,2013-08-14 04:10:00,
2013-08-13 18:15:00,75.0,72.5,29.99,East,82,8.0,11.0,92,0.00,,,0.00,19,Wunderground v.1.15,2013-08-14 04:15:00,
2013-08-13 18:20:00,74.7,72.2,29.99,East,79,6.0,6.0,92,0.00,,,0.00,16,Wunderground v.1.15,2013-08-14 04:20:00,
2013-08-13 18:25:00,74.6,71.8,29.98,ESE,123,6.0,14.0,91,0.00,,,0.00,12,Wunderground v.1.15,2013-08-14 04:25:00,
2013-08-13 18:30:00,74.5,71.7,29.99,East,81,6.0,8.0,91,0.00,,,0.00,9,Wunderground v.1.15,2013-08-14 04:30:00,
2013-08-13 18:35:00,74.4,71.6,29.99,East,94,5.0,8.0,91,0.00,,,0.00,7,Wunderground v.1.15,2013-08-14 04:35:00,
2013-08-13 18:40:00,74.4,71.6,29.99,SE,137,5.0,5.0,91,0.00,,,0.00,5,Wunderground v.1.15,2013-08-14 04:40:00,
2013-08-13 18:50:00,74.3,71.5,29.99,ENE,71,5.0,5.0,91,0.00,,,0.00,0,Wunderground v.1.15,2013-08-14 04:50:00,
2013-08-13 18:55:00,74.3,71.2,30.00,ESE,110,5.0,5.0,90,0.00,,,0.00,0,Wunderground v.1.15,2013-08-14 04:55:00,
2013-08-13 19:00:00,74.3,71.2,30.00,East,88,5.0,5.0,90,0.00,,,0.00,0,Wunderground v.1.15,2013-08-14 05:00:00,
2013-08-13 19:10:00,74.1,70.6,30.00,ESE,115,2.0,2.0,89,0.00,,,0.00,0,Wunderground v.1.15,2013-08-14 05:10:00,
2013-08-13 19:15:00,74.1,70.6,30.00,ESE,117,3.0,4.0,89,0.00,,,0.00,0,Wunderground v.1.15,2013-08-14 05:15:00,
2013-08-13 19:20:00,74.1,71.0,30.00,ENE,73,3.0,3.0,90,0.00,,,0.00,0,Wunderground v.1.15,2013-08-14 05:20:00,
2013-08-13 19:25:00,74.1,71.0,30.01,East,88,2.0,3.0,90,0.00,,,0.00,0,Wunderground v.1.15,2013-08-14 05:25:00,
2013-08-13 19:30:00,74.0,70.9,30.02,East,95,2.0,3.0,90,0.00,,,0.00,0,Wunderground v.1.15,2013-08-14 05:30:00,
2013-08-13 19:35:00,73.9,70.8,30.02,ESE,115,2.0,3.0,90,0.00,,,0.00,0,Wunderground v.1.15,2013-08-14 05:35:00,
2013-08-13 19:40:00,73.8,70.7,30.02,ESE,116,1.0,1.0,90,0.00,,,0.00,0,Wunderground v.1.15,2013-08-14 05:40:00,
2013-08-13 19:45:00,73.7,70.6,30.02,South,171,0.0,1.0,90,0.00,,,0.00,0,Wunderground v.1.15,2013-08-14 05:45:00,
2013-08-13 19:55:00,73.0,70.2,30.02,WSW,253,1.0,1.0,91,0.00,,,0.00,0,Wunderground v.1.15,2013-08-14 05:55:00,
2013-08-13 20:00:00,72.6,70.1,30.03,WSW,253,0.0,0.0,92,0.00,,,0.00,0,Wunderground v.1.15,2013-08-14 06:00:00,
2013-08-13 20:10:00,73.1,70.6,30.03,WSW,249,2.0,4.0,92,0.00,,,0.00,0,Wunderground v.1.15,2013-08-14 06:10:00,
2013-08-13 20:15:00,73.2,70.4,30.03,WSW,249,1.0,4.0,91,0.00,,,0.00,0,Wunderground v.1.15,2013-08-14 06:15:00,
2013-08-13 20:20:00,73.2,70.4,30.03,WSW,249,0.0,2.0,91,0.00,,,0.00,0,Wunderground v.1.15,2013-08-14 06:20:00,
2013-08-13 20:25:00,73.0,70.2,30.03,WSW,249,1.0,2.0,91,0.00,,,0.00,0,Wunderground v.1.15,2013-08-14 06:25:00,
2013-08-13 20:30:00,72.9,70.1,30.03,WSW,249,0.0,0.0,91,0.00,,,0.00,0,Wunderground v.1.15,2013-08-14 06:30:00,
2013-08-13 20:35:00,72.8,70.0,30.04,West,280,1.0,3.0,91,0.00,,,0.00,0,Wunderground v.1.15,2013-08-14 06:35:00,
2013-08-13 20:45:00,73.4,70.0,30.04,WNW,300,3.0,7.0,89,0.00,,,0.00,0,Wunderground v.1.15,2013-08-14 06:45:00,
2013-08-13 20:50:00,73.3,69.9,30.04,NW,319,3.0,3.0,89,0.00,,,0.00,0,Wunderground v.1.15,2013-08-14 06:50:00,
2013-08-13 20:55:00,72.9,69.8,30.04,NW,319,2.0,3.0,90,0.00,,,0.00,0,Wunderground v.1.15,2013-08-14 06:55:00,
2013-08-13 21:00:00,72.8,69.7,30.04,NW,319,0.0,0.0,90,0.00,,,0.00,0,Wunderground v.1.15,2013-08-14 07:00:00,
2013-08-13 21:10:00,72.3,69.5,30.04,NW,319,0.0,0.0,91,0.00,,,0.00,0,Wunderground v.1.15,2013-08-14 07:10:00,
2013-08-13 21:15:00,72.0,69.2,30.04,NW,319,0.0,0.0,91,0.00,,,0.00,0,Wunderground v.1.15,2013-08-14 07:15:00,
2013-08-13 21:25:00,71.3,68.9,30.05,NW,319,0.0,0.0,92,0.00,,,0.00,0,Wunderground v.1.15,2013-08-14 07:25:00,
2013-08-13 21:30:00,70.8,68.7,30.04,NW,319,0.0,0.0,93,0.00,,,0.00,0,Wunderground v.1.15,2013-08-14 07:30:00,
2013-08-13 21:35:00,70.4,68.6,30.05,NW,319,0.0,0.0,94,0.00,,,0.00,0,Wunderground v.1.15,2013-08-14 07:35:00,
2013-08-13 21:40:00,70.1,68.3,30.05,NW,319,0.0,0.0,94,0.00,,,0.00,0,Wunderground v.1.15,2013-08-14 07:40:00,
2013-08-13 21:45:00,69.8,68.3,30.05,NW,319,0.0,0.0,95,0.00,,,0.00,0,Wunderground v.1.15,2013-08-14 07:45:00,
2013-08-13 21:55:00,69.4,68.2,30.05,NW,319,0.0,0.0,96,0.00,,,0.00,0,Wunderground v.1.15,2013-08-14 07:55:00,
2013-08-13 22:00:00,69.2,68.0,30.06,NW,319,1.0,3.0,96,0.00,,,0.00,0,Wunderground v.1.15,2013-08-14 08:00:00,
2013-08-13 22:10:00,69.1,67.9,30.06,NW,319,3.0,3.0,96,0.00,,,0.00,0,Wunderground v.1.15,2013-08-14 08:10:00,
2013-08-13 22:15:00,69.3,67.8,30.06,NNW,344,3.0,3.0,95,0.00,,,0.00,0,Wunderground v.1.15,2013-08-14 08:15:00,
2013-08-13 22:20:00,69.9,68.1,30.06,NNW,344,2.0,2.0,94,0.00,,,0.00,0,Wunderground v.1.15,2013-08-14 08:20:00,
2013-08-13 22:25:00,70.0,68.2,30.06,NNW,344,1.0,2.0,94,0.00,,,0.00,0,Wunderground v.1.15,2013-08-14 08:25:00,
2013-08-13 22:30:00,69.8,68.0,30.06,NNW,344,0.0,2.0,94,0.00,,,0.00,0,Wunderground v.1.15,2013-08-14 08:30:00,
2013-08-13 22:35:00,69.6,67.8,30.06,NNW,344,1.0,2.0,94,0.00,,,0.00,0,Wunderground v.1.15,2013-08-14 08:35:00,
2013-08-13 22:45:00,69.3,67.8,30.06,NNW,344,0.0,1.0,95,0.00,,,0.00,0,Wunderground v.1.15,2013-08-14 08:45:00,
2013-08-13 22:50:00,69.4,68.2,30.06,NNW,344,0.0,0.0,96,0.00,,,0.00,0,Wunderground v.1.15,2013-08-14 08:50:00,
2013-08-13 22:55:00,69.5,68.3,30.06,NNW,344,0.0,0.0,96,0.00,,,0.00,0,Wunderground v.1.15,2013-08-14 08:55:00,
2013-08-13 23:00:00,69.6,68.4,30.06,NNW,344,0.0,0.0,96,0.00,,,0.00,0,Wunderground v.1.15,2013-08-14 09:00:00,
2013-08-13 23:10:00,69.8,68.6,30.06,NNW,344,0.0,0.0,96,0.00,,,0.00,0,Wunderground v.1.15,2013-08-14 09:10:00,
2013-08-13 23:15:00,69.8,68.6,30.06,NNW,344,0.0,0.0,96,0.00,,,0.00,0,Wunderground v.1.15,2013-08-14 09:15:00,
2013-08-13 23:20:00,70.2,69.0,30.06,NNW,344,0.0,0.0,96,0.00,,,0.00,0,Wunderground v.1.15,2013-08-14 09:20:00,
2013-08-13 23:25:00,70.3,68.8,30.06,NNW,344,0.0,0.0,95,0.00,,,0.00,0,Wunderground v.1.15,2013-08-14 09:25:00,
2013-08-13 23:30:00,70.5,69.0,30.06,NNW,344,0.0,0.0,95,0.00,,,0.00,0,Wunderground v.1.15,2013-08-14 09:30:00,
2013-08-13 23:40:00,71.0,69.2,30.06,NNW,344,1.0,1.0,94,0.00,,,0.00,0,Wunderground v.1.15,2013-08-14 09:40:00,
2013-08-13 23:45:00,71.1,69.3,30.06,NNW,344,0.0,1.0,94,0.00,,,0.00,0,Wunderground v.1.15,2013-08-14 09:45:00,
2013-08-13 23:55:00,71.3,69.2,30.06,NNW,346,2.0,5.0,93,0.00,,,0.00,0,Wunderground v.1.15,2013-08-14 09:55:00,